Regional Weather Roundup
Issued by NWS

Home | Current Version | Previous Version | Text Only | Print | Product List | Glossary On
Versions: 1 2 3 4 5 6 7 8 9 10 11 12 13 14 15 16 17 18 19 20 21 22 23 24 25 26 27 28 29 30 31 32 33 34 35 36 37 38 39 40 41 42 43 44 45 46 47 48 49
000
ASUS42 KKEY 301410
RWRKEY

FLORIDA REGIONAL WEATHER ROUNDUP FOR THE FLORIDA KEYS
NATIONAL WEATHER SERVICE KEY WEST FLORIDA
1000 AM EDT SAT APR 30 2016

...SOUTH FLORIDA AND THE KEYS...

CITY           SKY/WX    TMP DP  RH WIND       PRES   REMARKS
FORT MYERS     CLOUDY    78  69  73 SE9       29.98S
SW REGIONAL AP CLOUDY    77  68  73 SE10G32   29.99S
NAPLES         CLOUDY    79  67  66 E10       29.98R
MIAMI          PTSUNNY   80  63  55 E14G21    30.00R
WEST KENDALL     N/A    N/A N/A N/A MISG      29.99R
HOMESTEAD      MOSUNNY   80  65  60 E12       29.99R
MARATHON       CLOUDY    82  66  58 E8G17     29.97R
BOCA CHICA NAS CLOUDY    81  68  64 E15       29.96R
KEY WEST INTL  MOSUNNY   80  70  71 E13       29.96S

...INTERNATIONAL WEATHER...

CITY           SKY/WX    TMP DP  RH WIND       PRES   REMARKS
NASSAU BAHAMAS MOSUNNY   79  68  69 NE6       30.01S
CANCUN MEXICO  PTSUNNY   84  75  74 E16       29.83R HX  92
COZUMEL MEXICO PTSUNNY   81  75  83 SE17      29.81S

ADJACENT COASTAL WATERS...

STATION/POSITION TIME  SKY/WX   TEMP    WIND        PRES    WAVE
                                AIR SEA DIR/SP/G            HT/PER
                 (UTC)          (F)     (DEG/KT/KT) (MB)    (FT/S)
PULASKI SHOAL LI 1400            78     120/ 13/ 14 1014.0R
SAND KEY         1350            78     130/ 17/ 19 1014.4S
SOMBRERO KEY     NOT AVBL
LONG KEY         1300            77 80  110/ 12/ 13 1015.0R
MOLASSES REEF    1400            76 81  100/ 13/ 14 1015.7R
FOWEY ROCKS      NOT AVBL

$$



USA.gov is the U.S. government's official web portal to all federal, state and local government web resources and services.